Date String (YYYY-MM-DD hh:mm:ss) UTC,Instrument flags,Ambient pressure (hPa),Sample flow (lpm),Bypass flow (lpm),Sample temperature (°C),Ambient temperature (°C),ASC tube jacket temperature (°C),LED temperature (°C),Box temperature (°C),Sample RH (%),Span deviation,Mass concentration (μg/m³),Mass concentration (μg/m³),Mass concentration (μg/m³)
DateTimeUTC,F1_M11,P_M11,Q1_M11,Q2_M11,T1_M11,T2_M11,T3_M11,T4_M11,T5_M11,U1_M11,ZSPAN_M11,X0_M11,X2_M11,X1_M11
2021-11-25 06:00:00,,0835.9,5.00,0.00,21.2,20.8,00.0,30.4,22.8,15.3,0000.0,0008.21,0005.72,0005.40
2021-11-25 06:01:00,,0835.9,5.01,0.00,21.3,21.8,00.0,30.4,23.1,15.2,0000.0,0008.22,0005.76,0005.44
2021-11-25 06:02:00,,0835.9,5.00,0.00,21.4,22.6,00.0,30.5,23.4,15.1,0000.0,0008.21,0005.79,0005.47
2021-11-25 06:03:00,,0835.9,4.98,0.00,21.5,22.4,00.0,30.5,23.4,15.0,0000.0,0008.20,0005.83,0005.50
2021-11-25 06:04:00,,0835.9,5.01,0.00,21.5,22.0,00.0,30.5,23.3,15.0,0000.0,0008.24,0005.87,0005.53
2021-11-25 06:05:00,,0835.9,5.00,0.00,21.5,21.7,00.0,30.5,23.2,15.0,0000.0,0008.22,0005.89,0005.56
2021-11-25 06:06:00,,0835.9,5.00,0.00,21.4,21.4,00.0,30.5,23.1,15.1,0000.0,0008.41,0005.95,0005.60
2021-11-25 06:07:00,,0835.9,4.99,0.00,21.4,21.2,00.0,30.5,22.9,15.1,0000.0,0008.56,0006.00,0005.64
2021-11-25 06:08:00,,0835.9,5.00,0.00,21.3,21.0,00.0,30.5,22.9,15.2,0000.0,0008.81,0006.08,0005.68
2021-11-25 06:09:00,,0835.9,5.00,0.00,21.3,20.8,00.0,30.5,22.8,15.2,0000.0,0009.16,0006.12,0005.73
2021-11-25 06:10:00,,0835.9,5.01,0.00,21.2,20.6,00.0,30.4,22.8,15.2,0000.0,0009.18,0006.16,0005.77
2021-11-25 06:11:00,,0835.9,4.99,0.00,21.2,20.5,00.0,30.4,22.7,15.3,0000.0,0009.33,0006.20,0005.81
2021-11-25 06:12:00,,0835.9,4.99,0.00,21.1,20.4,00.0,30.4,22.7,15.3,0000.0,0009.57,0006.24,0005.83
2021-11-25 06:13:00,,0836.0,5.00,0.00,21.1,20.3,00.0,30.4,22.6,15.4,0000.0,0009.63,0006.29,0005.87
2021-11-25 06:14:00,,0835.9,5.00,0.00,21.0,20.3,00.0,30.3,22.5,15.4,0000.0,0009.69,0006.32,0005.91
2021-11-25 06:15:00,,0836.0,5.00,0.00,21.1,20.9,00.0,30.3,22.7,15.4,0000.0,0010.29,0006.34,0005.93
2021-11-25 06:16:00,,0835.9,5.00,0.00,21.2,21.8,00.0,30.4,23.0,15.3,0000.0,0010.60,0006.36,0005.95
2021-11-25 06:17:00,,0835.9,5.01,0.00,21.4,22.5,00.0,30.4,23.3,15.2,0000.0,0010.53,0006.37,0005.96
2021-11-25 06:18:00,,0835.9,5.00,0.00,21.4,22.3,00.0,30.4,23.3,15.1,0000.0,0010.44,0006.37,0005.98
2021-11-25 06:19:00,,0835.8,5.00,0.00,21.4,21.9,00.0,30.4,23.2,15.0,0000.0,0010.26,0006.36,0005.99
2021-11-25 06:20:00,,0835.9,5.00,0.00,21.4,21.6,00.0,30.4,23.1,15.1,0000.0,0009.89,0006.35,0005.98
2021-11-25 06:21:00,,0835.9,5.00,0.00,21.4,21.4,00.0,30.4,23.1,15.1,0000.0,0009.92,0006.35,0006.00
2021-11-25 06:22:00,,0835.9,5.00,0.00,21.3,21.2,00.0,30.4,23.0,15.1,0000.0,0009.80,0006.37,0006.01
2021-11-25 06:23:00,,0835.9,5.00,0.00,21.3,21.0,00.0,30.4,22.9,15.2,0000.0,0010.17,0006.38,0006.03
2021-11-25 06:24:00,,0835.9,5.01,0.00,21.2,20.8,00.0,30.4,22.8,15.2,0000.0,0011.08,0006.37,0006.04
2021-11-25 06:25:00,,0835.9,4.99,0.00,21.2,20.6,00.0,30.4,22.7,15.2,0000.0,0011.03,0006.35,0006.04
2021-11-25 06:26:00,,0835.9,5.01,0.00,21.1,20.5,00.0,30.4,22.7,15.3,0000.0,0010.44,0006.36,0006.05
2021-11-25 06:27:00,,0835.9,5.01,0.00,21.1,20.3,00.0,30.3,22.6,15.3,0000.0,0010.54,0006.39,0006.08
2021-11-25 06:28:00,,0835.9,5.00,0.00,21.0,20.2,00.0,30.3,22.5,15.4,0000.0,0011.00,0006.42,0006.12
2021-11-25 06:29:00,,0835.9,5.00,0.00,21.0,20.5,00.0,30.3,22.6,15.5,0000.0,0011.44,0006.46,0006.16
2021-11-25 06:30:00,,0835.9,4.99,0.00,21.1,21.5,00.0,30.3,22.9,15.4,0000.0,0011.57,0006.52,0006.20
2021-11-25 06:31:00,,0835.9,5.02,0.00,21.3,22.4,00.0,30.4,23.2,15.3,0000.0,0012.17,0006.58,0006.25
2021-11-25 06:32:00,,0835.9,4.98,0.00,21.4,22.5,00.0,30.4,23.4,15.2,0000.0,0012.18,0006.62,0006.27
2021-11-25 06:33:00,,0835.9,5.00,0.00,21.5,22.2,00.0,30.4,23.3,15.2,0000.0,0012.16,0006.64,0006.28
2021-11-25 06:34:00,,0836.0,5.01,0.00,21.4,21.9,00.0,30.4,23.2,15.2,0000.0,0011.65,0006.67,0006.31
2021-11-25 06:35:00,,0836.0,5.01,0.00,21.4,21.6,00.0,30.4,23.1,15.2,0000.0,0010.84,0006.74,0006.34
2021-11-25 06:36:00,,0835.9,4.99,0.00,21.4,21.4,00.0,30.4,23.0,15.2,0000.0,0011.01,0006.81,0006.38
2021-11-25 06:37:00,,0835.9,4.99,0.00,21.4,21.2,00.0,30.4,23.0,15.3,0000.0,0011.04,0006.83,0006.40
2021-11-25 06:38:00,,0836.0,5.01,0.00,21.3,21.0,00.0,30.4,22.9,15.3,0000.0,0010.61,0006.83,0006.41
2021-11-25 06:39:00,,0836.0,5.00,0.00,21.3,20.9,00.0,30.4,22.9,15.3,0000.0,0010.15,0006.83,0006.42
2021-11-25 06:40:00,,0836.0,5.00,0.00,21.3,20.7,00.0,30.4,22.8,15.4,0000.0,0009.67,0006.80,0006.41
2021-11-25 06:41:00,,0836.0,5.02,0.00,21.2,20.6,00.0,30.4,22.8,15.5,0000.0,0009.52,0006.77,0006.41
2021-11-25 06:42:00,,0836.0,4.99,0.00,21.2,20.4,00.0,30.3,22.7,15.5,0000.0,0009.05,0006.76,0006.41
2021-11-25 06:43:00,,0836.0,4.99,0.00,21.1,20.4,00.0,30.3,22.7,15.6,0000.0,0009.48,0006.80,0006.44
2021-11-25 06:44:00,,0836.0,5.01,0.00,21.1,20.4,00.0,30.3,22.7,15.6,0000.0,0009.85,0006.79,0006.46
2021-11-25 06:45:00,,0836.0,5.00,0.00,21.1,20.4,00.0,30.3,22.6,15.7,0000.0,0009.87,0006.80,0006.47
2021-11-25 06:46:00,,0836.0,5.01,0.00,21.1,20.4,00.0,30.3,22.6,15.7,0000.0,0009.72,0006.81,0006.49
2021-11-25 06:47:00,,0836.0,5.00,0.00,21.1,21.0,00.0,30.3,22.8,15.7,0000.0,0009.68,0006.82,0006.51
2021-11-25 06:48:00,,0836.0,5.00,0.00,21.3,21.9,00.0,30.3,23.1,15.6,0000.0,0009.66,0006.82,0006.52
2021-11-25 06:49:00,,0835.9,5.00,0.00,21.4,22.6,00.0,30.4,23.4,15.5,0000.0,0009.75,0006.87,0006.53
2021-11-25 06:50:00,,0835.9,5.00,0.00,21.5,22.4,00.0,30.4,23.5,15.4,0000.0,0009.81,0006.87,0006.54
2021-11-25 06:51:00,,0835.9,4.99,0.00,21.5,22.1,00.0,30.4,23.4,15.4,0000.0,0009.90,0006.90,0006.55
2021-11-25 06:52:00,,0835.9,4.99,0.00,21.5,21.8,00.0,30.5,23.3,15.5,0000.0,0010.34,0006.94,0006.56
2021-11-25 06:53:00,,0835.9,5.00,0.00,21.5,21.6,00.0,30.5,23.2,15.5,0000.0,0010.38,0006.94,0006.57
2021-11-25 06:54:00,,0835.9,5.01,0.00,21.5,21.3,00.0,30.5,23.1,15.5,0001.0,0010.39,0006.90,0006.56
2021-11-25 06:55:00,,0835.9,5.00,0.00,21.4,21.2,00.0,30.5,23.1,15.5,0000.0,0010.02,0006.90,0006.56
2021-11-25 06:56:00,,0835.9,5.01,0.00,21.4,21.1,00.0,30.5,23.1,15.5,0000.0,0010.10,0006.91,0006.56
2021-11-25 06:57:00,,0835.9,4.99,0.00,21.4,21.1,00.0,30.4,23.1,15.5,0000.0,0010.11,0006.91,0006.57
2021-11-25 06:58:00,,0835.8,5.00,0.00,21.4,21.0,00.0,30.5,23.1,15.4,0000.0,0010.11,0006.92,0006.57
2021-11-25 06:59:00,,0835.9,5.00,0.00,21.4,21.0,00.0,30.5,23.1,15.4,0000.0,0010.20,0006.95,0006.57
